Weather History for KARB - October, 2013

Change the Weather History Date:

Wednesday, October 23, 2013

  Actual Average Record
Temperature  
Mean Temperature 38 °F -  
Max Temperature 50 °F 56 °F 73 °F (2012)
Min Temperature 30 °F 35 °F 26 °F (2005)
Degree Days  
Heating Degree Days 27    
Moisture  
Dew Point 30 °F    
Average Humidity 73    
Maximum Humidity 96    
Minimum Humidity 40    
Precipitation  
Precipitation 0.00 in - - ()
Sea Level Pressure  
Sea Level Pressure 29.88 in    
Wind  
Wind Speed 6 mph (WNW)    
Max Wind Speed 13 mph    
Max Gust Speed 21 mph    
Visibility 9 miles    
Events      
Averages and records for this station are not official NWS values.
T = Trace of Precipitation, MM = Missing Value Source: NWS Daily Summary

Daily Weather History Graph

Daily Weather History Graph

Search for Another Location

Airport or City:

Trip Planner

Search our weather history database for the weather conditions in past years. The results will help you decide how hot, cold, wet, or windy it might be!

Date:

Astronomy

Oct. 23, 2013 Rise Set
Actual Time 7:57 AM EDT 6:40 PM EDT
Civil Twilight 7:28 AM EDT 7:09 PM EDT
Nautical Twilight 6:55 AM EDT 7:41 PM EDT
Astronomical Twilight 6:23 AM EDT 8:14 PM EDT
Moon 10:08 PM EDT (10/23) 12:16 PM EDT (10/23)
Length of Visible Light 11h 40m
Length of Day
10h 43m
Waning Gibbous, 79% of the Moon is Illuminated
Oct 23
Waning Gibbous
Oct 26
Last Quarter
Nov 3
New
Nov 10
First Quarter
Nov 17
Full

Hourly Weather History & Observations

Time (EDT) Temp. Windchill Dew Point Humidity Pressure Visibility Wind Dir Wind Speed Gust Speed Precip Events Conditions
12:53 AM 37.0 °F 31.0 °F 33.1 °F 86% 29.88 in 10.0 mi WSW 8.1 mph - N/A   Overcast
1:53 AM 34.0 °F 31.0 °F 32.0 °F 92% 29.87 in 8.0 mi WSW 3.5 mph - N/A   Clear
2:53 AM 30.9 °F 26.2 °F 28.9 °F 92% 29.86 in 7.0 mi West 4.6 mph - N/A   Clear
3:53 AM 30.0 °F - 28.0 °F 92% 29.84 in 5.0 mi Calm Calm - N/A   Clear
4:53 AM 33.1 °F - 30.9 °F 92% 29.83 in 6.0 mi Calm Calm - N/A   Clear
5:53 AM 33.1 °F 30.0 °F 30.9 °F 92% 29.83 in 6.0 mi NW 3.5 mph - N/A   Mostly Cloudy
6:53 AM 33.1 °F 28.7 °F 30.9 °F 92% 29.84 in 7.0 mi NNW 4.6 mph - N/A   Clear
7:53 AM 30.9 °F 27.5 °F 30.0 °F 96% 29.85 in 7.0 mi NW 3.5 mph - N/A   Clear
8:53 AM 35.1 °F 27.9 °F 32.0 °F 89% 29.87 in 10.0 mi NNW 9.2 mph - N/A   Clear
9:53 AM 37.9 °F 33.5 °F 34.0 °F 86% 29.88 in 10.0 mi North 5.8 mph - N/A   Scattered Clouds
10:53 AM 43.0 °F 38.8 °F 34.0 °F 71% 29.88 in 10.0 mi NW 6.9 mph - N/A   Mostly Cloudy
11:03 AM 42.8 °F 39.3 °F 32.0 °F 66% 29.86 in 10.0 mi NW 5.8 mph - N/A   Scattered Clouds
11:40 AM 42.8 °F 37.0 °F 30.2 °F 61% 29.86 in 10.0 mi NW 10.4 mph - N/A   Mostly Cloudy
11:53 AM 43.0 °F 37.7 °F 30.9 °F 62% 29.88 in 10.0 mi NNW 9.2 mph - N/A   Mostly Cloudy
12:53 PM 46.9 °F - 28.9 °F 50% 29.88 in 10.0 mi NW 9.2 mph 17.3 mph N/A   Mostly Cloudy
1:53 PM 46.9 °F - 25.0 °F 42% 29.87 in 10.0 mi NW 9.2 mph 18.4 mph N/A   Partly Cloudy
2:53 PM 46.0 °F 40.2 °F 23.0 °F 40% 29.87 in 10.0 mi NW 12.7 mph - N/A   Mostly Cloudy
3:53 PM 46.9 °F - 24.1 °F 41% 29.87 in 10.0 mi West 9.2 mph 20.7 mph N/A   Overcast
4:53 PM 44.1 °F 38.6 °F 26.1 °F 49% 29.89 in 10.0 mi WNW 10.4 mph - N/A   Overcast
5:53 PM 42.1 °F 36.1 °F 28.0 °F 58% 29.91 in 10.0 mi NW 10.4 mph - 0.00 in   Overcast
6:53 PM 39.9 °F 33.9 °F 28.9 °F 65% 29.93 in 10.0 mi West 9.2 mph - N/A   Overcast
7:53 PM 37.0 °F 31.6 °F 30.0 °F 76% 29.94 in 10.0 mi West 6.9 mph - N/A   Mostly Cloudy
8:53 PM 37.9 °F 30.9 °F 32.0 °F 79% 29.94 in 10.0 mi West 10.4 mph - N/A   Overcast
9:53 PM 37.0 °F 30.4 °F 32.0 °F 82% 29.94 in 10.0 mi West 9.2 mph - N/A   Overcast
10:53 PM 37.0 °F 30.4 °F 30.9 °F 79% 29.94 in 10.0 mi WNW 9.2 mph - N/A   Overcast
11:53 PM 36.0 °F 30.3 °F 30.0 °F 79% 29.94 in 10.0 mi West 6.9 mph - N/A   Overcast